SCP
0 0 0 0 0 0 0 0 0 0 0 0 0 0 0 0 0 0 0 0 0 0 0 0 0 0 0 0 0 0 0 0 0 0 0 0 0 0 0 0 0 0 0
0 0 0 0 0 0 0 0 0 0 0 0 0 0 0 0 0 0 0 0 0 0 0 0 0 0 0 0 0 0 0 0 0 0 0 0 0 0 0 0 0 0 0
0 0 0 0 0 0 0 0 0 0 0 0 0 0 0 0 0 0 0 0 0 0 0 0 0 0 0 0 0 0 0 0 0 0 0 0 0 0 0 0 0 0 0
0 0 0 0 0 0 0 0 0 0 0 0 0 0 0 0 0 0 0 0 0 0 0 0 0 0 0 0 0 0 0 0 0 0 0 0 0 0 0 0 0 0 0
0 0 0 0 0 0 0 0 0 0 0 0 0 0 0 0 0 0 0 0 0 0 0 0 0 0 0 0 0 0 0 0 0 0 0 0 0 0 0 0 0 0 0
0 0 0 0 0 0 0 0 0 0 0 0 0 0 0 0 0 0 0 0 0 0 0 0 0 0 0 0 0 0 0 0 0 0 0 0 0 0 0 0 0 0 -0
0 0 0 0 0 0 0 0 0 0 0 0 0 0 0 0 0 0 0 0 0 0 0 0 0 0 0 0 0 0 0 0 0 0 0 0 0 0 0 0 0 0 0
0 0 0 0 0 0 0 0 0 0 0 0 0 0 0 0 0 0 0 0 0 0 0 0 0 0 0 0 0 0 0 0 0 0 0 0 0 0 0 0 0 0 0
0 0 0 0 0 0 0 0 0 0 0 0 0 0 0 0 0 0 0 0 0 0 0 0 0 0 0 0 0 0 0 0 0 0 0 0 0 0 0 0 0 0 0
0 0 0 0 0 0 0 0 0 0 0 0 0 0 0 0 0 0 0 0 0 0 0 0 0 0 0 0 0 0 0 0 0 0 0 0 0 0 0 0 0 0 0
0 0 0 0 0 0 0 0 0 0 0 0 0 0 0 0 0 0 0 0 0 0 0 0 0 0 0 0 0 0 0 0 0 0 0 0 0 0 0 0 0 0 0
0 0 0 0 0 0 0 0 0 0 0 0 0 0 0 0 0 0 0 0 0 0 0 0 0 0 0 0 0 0 0 0 0 0 0 0 0 0 0 0 0 0 0
0 0 0 0 0 0 0 0 0 0 0 0 0 0 0 0 0 0 0 0 0 0 0 0 0 0 0 0 0 0 0 0 0 0 0 0 0 0 0 0 0 0 0
0 0 0 0 0 0 0 0 0 0 0 0 0 0 0 0 0 0 0 0 0 0 0 0 0 0 0 0 0 0 0 0 0 0 0 0 0 0 0 0 0 0 0
0 0 0 0 0 0 0 0 0 0 0 0 0 0 0 0 0 0 0 0 0 0 0 0 0 0 0 0 0 0 0 0 0 0 0 0 0 0 0 0 0 0 0
0 0 0 0 0 0 0 0 0 0 0 0 0 0 0 0 0 0 0 0 0 0 0 0 0 0 0 0 0 0 0 0 0 0 0 0 0 0 0 0 0 0 0
0 0 0 0 0 0 0 0 0 0 0 0 0 0 0 0 0 0 0 0 0 0 0 0 0 0 0 0 0 0 0 0 0 0 0 0 0 0 0 0 0 0 0
0 0 0 0 0 0 0 0 0 0 0 0 0 0 0 0 0 0 0 0 0 0 0 0 0 0 0 0 0 0 0 0 0 0 0 0 0 0 0 0 0 0 0
0 0 0 0 0 0 0 0 0 0 0 0 0 0 0 0 0 0 0 0 0 0 0 0 0 0 0 0 0 0 0 0 0 0 0 0 0 0 0 0 0 0 0
0 0 0 0 0 0 0 0 0 0 0 0 0 0 0 0 0 0 0 0 0 0 0 0 0 0 0 0 0 0 0 0 0 0 0 0 0 0 0 0 0 0 0
0 0 0 0 0 0 0 0 0 0 0 0 0 0 0 0 0 0 0 0 0 0 0 0 0 0 0 0 0 0 0 0 0 0 0 0 0 0 0 0 0 0 0
0 0 0 0 0 0 0 0 0 0 0 0 0 0 0 0 0 0 0 0 0 0 0 0 0 0 0 0 0 0 0 0 0 0 0 0 0 0 0 0 0 0 0
0 0 0 0 0 0 0 0 0 0 0 0 0 0 0 0 0 0 0 0 0 0 0 0 0 0 0 0 0 0 0 0 0 0 0 0 0 0 0 0 0 0 0
0 0 0 0 0 0 0 0 0 0 0 0 0 0 0 0 0 0 0 0 0 0 0 0 0 0 0 0 0 0 0 0 0 0 0 0 0 0 0 0 0 0 0
0 0 0 0 0 0 0 0 0 0 0 0 0 0 0 0 0 0 0 0 0 0 0 0 0 0 0 0 0 0 0 0 0 0 0 0 0 0 0 0 0 0 0
0 0 0 0 0 0 0 0 0 0 0 0 0 0 0 0 0 0 0 0 0 0 0 0 0 0 0 0 0 0 0 0 0 0 0 0 0 0 0 0 0 0 0
Wind_Speed_500mb
24 26 27 27 27 28 29 30 32 35 36 38 40 42 44 47 48 51 51 53 55 55 57 61 64 66 65 66 68 67 55 48 56 96 88 89 82 66 73 78 71 67 69
23 23 24 23 24 27 28 28 29 31 35 35 36 39 40 42 45 47 48 48 50 52 53 56 59 63 62 63 65 59 59 48 47 70 91 90 85 67 68 76 71 63 56
21 22 23 24 26 27 28 29 30 31 29 30 32 34 37 42 45 47 49 51 51 51 51 53 56 60 62 62 60 57 58 49 44 44 79 83 78 71 74 73 72 68 53
22 23 25 26 27 28 29 27 26 24 26 29 32 36 39 42 47 53 55 53 53 53 53 54 55 57 59 62 56 57 60 52 53 54 69 77 70 64 77 77 80 68 62
24 27 28 31 32 27 21 17 17 22 29 34 38 40 43 45 47 50 55 56 54 54 54 55 56 58 57 55 47 51 58 56 52 64 57 61 64 77 74 76 75 69 64
29 31 33 33 29 21 16 15 20 25 29 33 37 39 42 45 47 50 54 59 58 59 61 59 58 58 59 56 47 46 46 56 52 53 53 54 62 66 67 69 68 69 66
32 32 32 29 23 17 13 14 18 22 27 33 39 44 47 50 52 54 57 59 59 58 58 60 60 62 63 60 55 53 60 54 39 44 45 49 58 60 66 64 58 56 55
33 32 31 25 20 16 14 16 21 27 33 39 44 49 54 54 56 57 57 57 58 57 57 58 59 67 65 58 58 60 64 62 45 47 44 45 47 51 48 51 52 52 44
37 35 31 24 22 20 20 22 26 32 37 42 48 52 56 57 57 57 54 54 54 53 56 50 61 65 63 52 56 57 63 61 53 56 47 44 43 44 42 48 49 55 57
39 37 34 30 27 25 25 28 31 37 43 48 52 54 56 57 55 53 42 51 48 51 50 51 59 59 48 53 48 56 61 50 60 58 47 43 41 40 39 39 40 46 49
40 38 34 32 30 29 30 33 37 42 47 51 54 56 55 53 50 48 45 44 47 46 54 57 56 53 51 49 43 49 41 51 55 50 48 45 44 42 41 40 38 40 44
39 37 35 35 33 33 35 38 42 46 50 54 58 60 56 52 52 49 42 36 38 44 49 52 51 52 52 53 45 42 40 50 50 49 48 47 47 46 46 46 43 41 37
39 37 36 36 35 37 39 41 46 48 53 57 61 62 58 54 54 50 40 46 39 43 44 42 53 63 64 53 48 48 50 50 51 52 52 51 50 50 49 48 45 44 40
38 36 36 38 37 39 42 46 48 49 53 57 59 58 57 56 55 48 50 56 53 49 48 45 56 62 53 51 48 43 44 45 47 49 50 51 50 49 49 49 51 51 51
39 37 38 39 40 42 45 46 46 48 53 57 56 55 56 56 50 42 42 48 49 47 55 59 59 55 51 46 45 45 44 44 44 46 48 50 51 51 50 48 47 48 47
40 39 40 41 42 46 47 44 44 49 51 50 50 51 50 51 46 42 39 40 51 42 58 64 64 58 54 53 52 51 48 48 47 48 48 49 50 51 51 48 46 44 46
43 41 42 43 44 46 46 48 53 45 46 45 47 48 47 50 48 44 39 38 51 57 57 57 55 55 55 54 53 53 52 48 46 45 46 45 47 48 50 48 47 46 47
46 44 44 43 46 47 46 48 51 55 54 43 39 47 47 45 45 44 37 47 45 39 45 48 49 49 50 52 52 52 52 50 48 47 46 45 45 48 50 48 48 50 51
49 46 44 46 46 45 45 47 49 51 49 49 48 42 45 43 42 41 44 48 52 50 49 49 49 50 49 51 52 54 54 53 51 50 48 48 46 48 49 48 49 48 51
50 46 46 46 45 45 45 47 47 48 46 47 47 48 46 50 47 42 40 45 48 49 51 52 52 51 51 50 52 54 55 53 51 49 49 49 48 48 50 51 50 52 50
50 47 47 46 43 44 44 46 47 47 47 46 45 45 48 52 52 50 48 46 49 50 52 54 55 55 55 55 54 55 56 54 52 51 52 50 49 50 48 49 51 50 51
49 46 46 45 43 43 44 46 46 45 46 47 44 42 47 49 51 52 52 52 53 55 56 59 59 60 59 60 60 60 61 60 56 55 55 55 54 52 52 51 51 50 47
46 46 45 42 41 42 44 44 45 45 45 45 47 48 47 50 52 54 56 57 57 58 58 59 61 61 60 61 59 60 62 61 60 60 60 59 57 55 54 54 52 50 48
44 41 41 39 40 42 43 41 42 43 45 45 46 49 52 53 55 56 57 59 60 59 59 60 60 60 61 60 60 57 57 57 57 57 58 58 57 55 54 53 51 48 49
36 37 37 36 39 40 41 40 40 41 43 45 47 50 53 55 57 58 59 60 61 61 58 57 57 57 57 56 54 51 49 47 48 50 52 52 52 50 48 48 46 46 48
33 33 33 36 36 37 38 37 38 40 43 45 49 52 56 58 59 59 58 57 57 57 57 57 57 56 55 52 46 44 44 45 46 44 46 47 51 50 45 46 45 51 59
Wind_Direction_500mb
351 347 344 339 338 336 335 335 335 336 335 340 337 339 341 338 339 341 345 342 340 340 337 335 333 332 335 329 330 330 327 321 311 308 313 321 323 324 313 316 316 313 311
342 336 332 331 333 334 332 335 338 337 341 337 339 344 342 342 346 349 352 350 348 347 345 340 337 336 336 334 333 333 330 329 313 310 313 319 325 320 316 324 323 321 320
333 329 329 332 333 333 336 337 340 346 342 348 352 352 350 349 350 349 353 354 352 350 346 341 337 335 336 336 336 335 335 329 331 305 307 319 322 324 325 327 327 328 330
332 328 328 328 333 332 336 342 346 349 354 356 356 355 352 350 348 346 344 344 343 341 339 334 331 330 331 334 337 335 332 330 317 314 316 320 326 323 328 333 332 337 338
325 325 326 329 331 332 336 342 351 356 358 356 354 350 345 343 340 336 332 335 335 333 332 331 329 325 326 331 334 332 327 330 323 324 324 325 324 326 332 332 333 336 342
320 321 321 322 322 323 329 338 348 352 351 348 344 341 338 335 334 332 330 327 331 331 330 328 327 330 325 326 325 327 327 330 325 322 323 323 326 325 327 329 334 338 342
315 313 311 309 304 301 308 327 337 341 343 341 339 337 336 334 332 330 327 324 324 326 327 328 327 330 329 327 326 326 323 326 322 314 321 320 318 317 319 323 331 334 336
309 307 305 295 283 282 294 314 328 335 336 336 335 334 332 331 328 325 323 322 322 324 328 329 328 329 329 333 325 322 320 326 325 317 317 308 313 313 319 321 327 328 332
308 304 299 290 281 282 295 310 319 323 325 327 330 330 328 327 324 323 322 320 320 321 324 323 322 324 329 329 323 321 317 325 320 323 321 319 316 318 322 325 330 339 339
303 302 297 287 280 281 292 302 310 317 321 324 325 325 324 322 321 321 322 316 319 316 324 314 317 323 325 328 325 316 315 329 316 319 320 322 322 321 323 331 335 336 338
300 295 286 278 274 279 291 298 306 311 316 319 320 321 321 321 320 320 320 318 317 320 311 314 316 325 325 327 321 309 323 309 312 320 322 322 321 323 327 332 335 331 328
297 291 283 276 274 281 290 296 303 309 312 316 320 321 322 322 323 326 330 326 323 312 311 316 321 313 320 323 319 320 315 315 318 320 321 322 324 324 325 325 325 322 323
292 285 279 275 275 283 291 297 301 307 314 319 320 320 322 324 324 331 333 332 326 317 316 318 302 306 316 317 317 315 315 315 316 319 321 323 324 323 320 317 316 317 317
291 285 279 276 279 288 294 297 302 310 315 318 317 317 319 321 323 328 338 330 323 324 323 303 303 308 311 312 312 312 313 316 317 316 316 316 317 316 318 321 321 321 318
287 283 280 279 281 288 293 298 304 312 316 316 315 314 316 317 323 323 322 317 320 319 296 296 306 312 314 313 313 315 315 317 316 315 316 317 318 318 318 321 322 321 320
286 283 280 281 285 290 294 298 303 309 310 309 308 309 311 311 312 316 316 317 304 307 300 306 310 313 315 317 317 317 318 318 319 320 320 320 319 319 319 322 321 320 319
280 277 276 278 285 292 295 298 303 305 306 307 307 308 309 310 312 316 318 310 293 299 303 305 308 312 315 317 318 319 320 320 320 319 319 319 318 317 318 321 321 320 318
276 276 276 279 287 290 291 296 303 308 311 311 306 306 308 312 312 313 315 307 312 307 306 310 313 315 315 316 318 318 319 320 321 320 319 318 318 316 317 319 319 318 318
276 275 274 278 286 286 289 298 304 305 306 308 308 307 307 308 311 309 308 311 312 314 314 314 314 315 315 315 315 315 315 316 317 317 316 315 315 314 315 316 315 315 315
276 275 274 280 286 286 292 297 300 300 302 305 308 308 310 310 311 311 313 312 311 312 312 313 315 316 316 315 314 313 313 315 316 316 314 315 316 315 314 315 316 316 317
277 274 276 281 283 284 291 297 299 300 303 303 306 308 310 309 313 315 316 314 312 312 313 313 314 315 315 314 312 311 311 313 315 314 313 315 316 316 317 315 314 314 315
274 274 276 279 278 284 292 297 297 298 299 301 305 306 305 307 309 311 311 311 311 312 312 311 310 310 311 310 309 308 308 309 310 309 309 311 313 315 317 316 315 315 315
272 272 274 273 277 284 291 293 295 296 299 302 305 307 307 307 308 309 310 312 312 312 311 310 309 308 307 306 305 305 305 306 306 305 306 306 308 311 314 314 316 315 315
269 269 269 271 278 285 290 290 291 295 298 301 304 307 308 310 311 313 313 313 313 312 312 312 312 311 309 308 308 308 306 305 302 302 301 303 304 307 309 311 313 314 315
263 262 264 271 278 285 287 290 292 295 298 302 306 308 310 311 313 314 314 314 314 315 316 316 316 316 316 316 317 315 313 311 307 305 302 300 300 302 306 308 312 314 318
260 261 266 273 281 284 286 289 294 298 302 307 309 311 313 314 315 316 316 316 317 319 320 320 320 319 319 321 322 322 321 317 314 312 311 311 311 313 313 314 316 317 320
Wind_Speed_850mb
24 26 27 27 27 28 29 30 32 35 36 38 40 42 44 47 48 51 51 53 55 55 57 61 64 66 65 66 68 67 55 48 56 96 88 89 82 66 73 78 71 67 69
23 23 24 23 24 27 28 28 29 31 35 35 36 39 40 42 45 47 48 48 50 52 53 56 59 63 62 63 65 59 59 48 47 70 91 90 85 67 68 76 71 63 56
21 22 23 24 26 27 28 29 30 31 29 30 32 34 37 42 45 47 49 51 51 51 51 53 56 60 62 62 60 57 58 49 44 44 79 83 78 71 74 73 72 68 53
22 23 25 26 27 28 29 27 26 24 26 29 32 36 39 42 47 53 55 53 53 53 53 54 55 57 59 62 56 57 60 52 53 54 69 77 70 64 77 77 80 68 62
24 27 28 31 32 27 21 17 17 22 29 34 38 40 43 45 47 50 55 56 54 54 54 55 56 58 57 55 47 51 58 56 52 64 57 61 64 77 74 76 75 69 64
29 31 33 33 29 21 16 15 20 25 29 33 37 39 42 45 47 50 54 59 58 59 61 59 58 58 59 56 47 46 46 56 52 53 53 54 62 66 67 69 68 69 66
32 32 32 29 23 17 13 14 18 22 27 33 39 44 47 50 52 54 57 59 59 58 58 60 60 62 63 60 55 53 60 54 39 44 45 49 58 60 66 64 58 56 55
33 32 31 25 20 16 14 16 21 27 33 39 44 49 54 54 56 57 57 57 58 57 57 58 59 67 65 58 58 60 64 62 45 47 44 45 47 51 48 51 52 52 44
37 35 31 24 22 20 20 22 26 32 37 42 48 52 56 57 57 57 54 54 54 53 56 50 61 65 63 52 56 57 63 61 53 56 47 44 43 44 42 48 49 55 57
39 37 34 30 27 25 25 28 31 37 43 48 52 54 56 57 55 53 42 51 48 51 50 51 59 59 48 53 48 56 61 50 60 58 47 43 41 40 39 39 40 46 49
40 38 34 32 30 29 30 33 37 42 47 51 54 56 55 53 50 48 45 44 47 46 54 57 56 53 51 49 43 49 41 51 55 50 48 45 44 42 41 40 38 40 44
39 37 35 35 33 33 35 38 42 46 50 54 58 60 56 52 52 49 42 36 38 44 49 52 51 52 52 53 45 42 40 50 50 49 48 47 47 46 46 46 43 41 37
39 37 36 36 35 37 39 41 46 48 53 57 61 62 58 54 54 50 40 46 39 43 44 42 53 63 64 53 48 48 50 50 51 52 52 51 50 50 49 48 45 44 40
38 36 36 38 37 39 42 46 48 49 53 57 59 58 57 56 55 48 50 56 53 49 48 45 56 62 53 51 48 43 44 45 47 49 50 51 50 49 49 49 51 51 51
39 37 38 39 40 42 45 46 46 48 53 57 56 55 56 56 50 42 42 48 49 47 55 59 59 55 51 46 45 45 44 44 44 46 48 50 51 51 50 48 47 48 47
40 39 40 41 42 46 47 44 44 49 51 50 50 51 50 51 46 42 39 40 51 42 58 64 64 58 54 53 52 51 48 48 47 48 48 49 50 51 51 48 46 44 46
43 41 42 43 44 46 46 48 53 45 46 45 47 48 47 50 48 44 39 38 51 57 57 57 55 55 55 54 53 53 52 48 46 45 46 45 47 48 50 48 47 46 47
46 44 44 43 46 47 46 48 51 55 54 43 39 47 47 45 45 44 37 47 45 39 45 48 49 49 50 52 52 52 52 50 48 47 46 45 45 48 50 48 48 50 51
49 46 44 46 46 45 45 47 49 51 49 49 48 42 45 43 42 41 44 48 52 50 49 49 49 50 49 51 52 54 54 53 51 50 48 48 46 48 49 48 49 48 51
50 46 46 46 45 45 45 47 47 48 46 47 47 48 46 50 47 42 40 45 48 49 51 52 52 51 51 50 52 54 55 53 51 49 49 49 48 48 50 51 50 52 50
50 47 47 46 43 44 44 46 47 47 47 46 45 45 48 52 52 50 48 46 49 50 52 54 55 55 55 55 54 55 56 54 52 51 52 50 49 50 48 49 51 50 51
49 46 46 45 43 43 44 46 46 45 46 47 44 42 47 49 51 52 52 52 53 55 56 59 59 60 59 60 60 60 61 60 56 55 55 55 54 52 52 51 51 50 47
46 46 45 42 41 42 44 44 45 45 45 45 47 48 47 50 52 54 56 57 57 58 58 59 61 61 60 61 59 60 62 61 60 60 60 59 57 55 54 54 52 50 48
44 41 41 39 40 42 43 41 42 43 45 45 46 49 52 53 55 56 57 59 60 59 59 60 60 60 61 60 60 57 57 57 57 57 58 58 57 55 54 53 51 48 49
36 37 37 36 39 40 41 40 40 41 43 45 47 50 53 55 57 58 59 60 61 61 58 57 57 57 57 56 54 51 49 47 48 50 52 52 52 50 48 48 46 46 48
33 33 33 36 36 37 38 37 38 40 43 45 49 52 56 58 59 59 58 57 57 57 57 57 57 56 55 52 46 44 44 45 46 44 46 47 51 50 45 46 45 51 59
Wind_Direction_850mb
351 347 344 339 338 336 335 335 335 336 335 340 337 339 341 338 339 341 345 342 340 340 337 335 333 332 335 329 330 330 327 321 311 308 313 321 323 324 313 316 316 313 311
342 336 332 331 333 334 332 335 338 337 341 337 339 344 342 342 346 349 352 350 348 347 345 340 337 336 336 334 333 333 330 329 313 310 313 319 325 320 316 324 323 321 320
333 329 329 332 333 333 336 337 340 346 342 348 352 352 350 349 350 349 353 354 352 350 346 341 337 335 336 336 336 335 335 329 331 305 307 319 322 324 325 327 327 328 330
332 328 328 328 333 332 336 342 346 349 354 356 356 355 352 350 348 346 344 344 343 341 339 334 331 330 331 334 337 335 332 330 317 314 316 320 326 323 328 333 332 337 338
325 325 326 329 331 332 336 342 351 356 358 356 354 350 345 343 340 336 332 335 335 333 332 331 329 325 326 331 334 332 327 330 323 324 324 325 324 326 332 332 333 336 342
320 321 321 322 322 323 329 338 348 352 351 348 344 341 338 335 334 332 330 327 331 331 330 328 327 330 325 326 325 327 327 330 325 322 323 323 326 325 327 329 334 338 342
315 313 311 309 304 301 308 327 337 341 343 341 339 337 336 334 332 330 327 324 324 326 327 328 327 330 329 327 326 326 323 326 322 314 321 320 318 317 319 323 331 334 336
309 307 305 295 283 282 294 314 328 335 336 336 335 334 332 331 328 325 323 322 322 324 328 329 328 329 329 333 325 322 320 326 325 317 317 308 313 313 319 321 327 328 332
308 304 299 290 281 282 295 310 319 323 325 327 330 330 328 327 324 323 322 320 320 321 324 323 322 324 329 329 323 321 317 325 320 323 321 319 316 318 322 325 330 339 339
303 302 297 287 280 281 292 302 310 317 321 324 325 325 324 322 321 321 322 316 319 316 324 314 317 323 325 328 325 316 315 329 316 319 320 322 322 321 323 331 335 336 338
300 295 286 278 274 279 291 298 306 311 316 319 320 321 321 321 320 320 320 318 317 320 311 314 316 325 325 327 321 309 323 309 312 320 322 322 321 323 327 332 335 331 328
297 291 283 276 274 281 290 296 303 309 312 316 320 321 322 322 323 326 330 326 323 312 311 316 321 313 320 323 319 320 315 315 318 320 321 322 324 324 325 325 325 322 323
292 285 279 275 275 283 291 297 301 307 314 319 320 320 322 324 324 331 333 332 326 317 316 318 302 306 316 317 317 315 315 315 316 319 321 323 324 323 320 317 316 317 317
291 285 279 276 279 288 294 297 302 310 315 318 317 317 319 321 323 328 338 330 323 324 323 303 303 308 311 312 312 312 313 316 317 316 316 316 317 316 318 321 321 321 318
287 283 280 279 281 288 293 298 304 312 316 316 315 314 316 317 323 323 322 317 320 319 296 296 306 312 314 313 313 315 315 317 316 315 316 317 318 318 318 321 322 321 320
286 283 280 281 285 290 294 298 303 309 310 309 308 309 311 311 312 316 316 317 304 307 300 306 310 313 315 317 317 317 318 318 319 320 320 320 319 319 319 322 321 320 319
280 277 276 278 285 292 295 298 303 305 306 307 307 308 309 310 312 316 318 310 293 299 303 305 308 312 315 317 318 319 320 320 320 319 319 319 318 317 318 321 321 320 318
276 276 276 279 287 290 291 296 303 308 311 311 306 306 308 312 312 313 315 307 312 307 306 310 313 315 315 316 318 318 319 320 321 320 319 318 318 316 317 319 319 318 318
276 275 274 278 286 286 289 298 304 305 306 308 308 307 307 308 311 309 308 311 312 314 314 314 314 315 315 315 315 315 315 316 317 317 316 315 315 314 315 316 315 315 315
276 275 274 280 286 286 292 297 300 300 302 305 308 308 310 310 311 311 313 312 311 312 312 313 315 316 316 315 314 313 313 315 316 316 314 315 316 315 314 315 316 316 317
277 274 276 281 283 284 291 297 299 300 303 303 306 308 310 309 313 315 316 314 312 312 313 313 314 315 315 314 312 311 311 313 315 314 313 315 316 316 317 315 314 314 315
274 274 276 279 278 284 292 297 297 298 299 301 305 306 305 307 309 311 311 311 311 312 312 311 310 310 311 310 309 308 308 309 310 309 309 311 313 315 317 316 315 315 315
272 272 274 273 277 284 291 293 295 296 299 302 305 307 307 307 308 309 310 312 312 312 311 310 309 308 307 306 305 305 305 306 306 305 306 306 308 311 314 314 316 315 315
269 269 269 271 278 285 290 290 291 295 298 301 304 307 308 310 311 313 313 313 313 312 312 312 312 311 309 308 308 308 306 305 302 302 301 303 304 307 309 311 313 314 315
263 262 264 271 278 285 287 290 292 295 298 302 306 308 310 311 313 314 314 314 314 315 316 316 316 316 316 316 317 315 313 311 307 305 302 300 300 302 306 308 312 314 318
260 261 266 273 281 284 286 289 294 298 302 307 309 311 313 314 315 316 316 316 317 319 320 320 320 319 319 321 322 322 321 317 314 312 311 311 311 313 313 314 316 317 320